Hourly Weather Baraki Barak

Today, 9 July, Thursday

Time Temperature Precipitation Wind Pressure Humidity
00:00 +25°C° 0.3 mm 3 mps 599 mmHg 45%
01:00 +24°C° 0.3 mm 2 mps 598 mmHg 50%
02:00 +23°C° 0.3 mm 1 mps 597 mmHg 54%
03:00 +22°C° 0 mm 1 mps 597 mmHg 55%
04:00 +22°C° 0 mm 1 mps 596 mmHg 56%
05:00 +20°C° 0 mm 0 mps 596 mmHg 56%
06:00 +21°C° 0 mm 0 mps 597 mmHg 52%
07:00 +22°C° 0 mm 0 mps 597 mmHg 47%
08:00 +23°C° 0 mm 0 mps 598 mmHg 43%
09:00 +26°C° 0 mm 1 mps 598 mmHg 39%
10:00 +27°C° 0 mm 1 mps 598 mmHg 34%
11:00 +29°C° 0 mm 2 mps 598 mmHg 30%
12:00 +30°C° 0 mm 1 mps 598 mmHg 27%
13:00 +31°C° 0 mm 1 mps 598 mmHg 23%
14:00 +31°C° 0 mm 1 mps 598 mmHg 20%
15:00 +31°C° 0 mm 2 mps 598 mmHg 21%
16:00 +31°C° 0 mm 3 mps 597 mmHg 21%
17:00 +32°C° 0 mm 4 mps 597 mmHg 22%
18:00 +30°C° 0 mm 5 mps 597 mmHg 24%
19:00 +29°C° 0 mm 5 mps 597 mmHg 26%
20:00 +28°C° 0 mm 6 mps 597 mmHg 27%
21:00 +27°C° 0 mm 5 mps 597 mmHg 30%
22:00 +26°C° 0 mm 4 mps 597 mmHg 32%
23:00 +26°C° 0 mm 2 mps 597 mmHg 34%

Tomorrow, 10 July, Friday

Time Temperature Precipitation Wind Pressure Humidity
00:00 +25°C° 0 mm 2 mps 596 mmHg 35%
01:00 +24°C° 0 mm 2 mps 596 mmHg 36%
02:00 +24°C° 0 mm 1 mps 595 mmHg 37%
03:00 +23°C° 0 mm 1 mps 595 mmHg 38%
04:00 +22°C° 0 mm 1 mps 595 mmHg 38%
05:00 +22°C° 0 mm 1 mps 594 mmHg 39%
06:00 +23°C° 0 mm 1 mps 595 mmHg 35%
07:00 +24°C° 0 mm 1 mps 596 mmHg 32%
08:00 +25°C° 0 mm 2 mps 596 mmHg 28%
09:00 +26°C° 0 mm 2 mps 597 mmHg 26%
10:00 +27°C° 0 mm 2 mps 597 mmHg 24%
11:00 +29°C° 0 mm 2 mps 597 mmHg 21%
12:00 +30°C° 0 mm 2 mps 597 mmHg 19%
13:00 +31°C° 0 mm 2 mps 597 mmHg 17%
14:00 +32°C° 0 mm 2 mps 597 mmHg 15%
15:00 +33°C° 0 mm 3 mps 597 mmHg 14%
16:00 +34°C° 0 mm 4 mps 597 mmHg 13%
17:00 +34°C° 0 mm 4 mps 597 mmHg 13%
18:00 +32°C° 0 mm 5 mps 597 mmHg 13%
19:00 +30°C° 0 mm 5 mps 596 mmHg 14%
20:00 +28°C° 0 mm 5 mps 596 mmHg 15%
21:00 +27°C° 0 mm 5 mps 596 mmHg 16%
22:00 +26°C° 0 mm 4 mps 596 mmHg 17%
23:00 +25°C° 0 mm 3 mps 596 mmHg 17%

Day after tomorrow, 11 July, Saturday

Time Temperature Precipitation Wind Pressure Humidity
00:00 +24°C° 0 mm 2 mps 596 mmHg 19%
01:00 +24°C° 0 mm 2 mps 595 mmHg 20%
02:00 +23°C° 0 mm 1 mps 595 mmHg 22%
03:00 +22°C° 0 mm 1 mps 595 mmHg 23%
04:00 +21°C° 0 mm 1 mps 594 mmHg 24%
05:00 +21°C° 0 mm 1 mps 594 mmHg 26%
06:00 +22°C° 0 mm 1 mps 595 mmHg 24%
07:00 +23°C° 0 mm 1 mps 595 mmHg 22%
08:00 +24°C° 0 mm 2 mps 596 mmHg 20%
09:00 +25°C° 0 mm 2 mps 596 mmHg 19%
10:00 +27°C° 0 mm 2 mps 596 mmHg 17%
11:00 +28°C° 0 mm 2 mps 596 mmHg 15%
12:00 +29°C° 0 mm 2 mps 596 mmHg 14%
13:00 +30°C° 0 mm 2 mps 596 mmHg 13%
14:00 +31°C° 0 mm 2 mps 596 mmHg 11%
15:00 +32°C° 0 mm 2 mps 596 mmHg 11%
16:00 +33°C° 0 mm 3 mps 596 mmHg 10%
17:00 +34°C° 0 mm 3 mps 595 mmHg 9%
18:00 +32°C° 0 mm 4 mps 595 mmHg 13%
19:00 +29°C° 0 mm 4 mps 595 mmHg 16%
20:00 +28°C° 0 mm 5 mps 594 mmHg 20%
21:00 +27°C° 0 mm 4 mps 594 mmHg 21%
22:00 +26°C° 0 mm 3 mps 594 mmHg 23%
23:00 +26°C° 0 mm 2 mps 594 mmHg 24%

12 July, Sunday

Time Temperature Precipitation Wind Pressure Humidity
00:00 +25°C° 0.2 mm 2 mps 594 mmHg 26%
01:00 +24°C° 0.2 mm 2 mps 594 mmHg 28%
02:00 +24°C° 0.2 mm 2 mps 593 mmHg 30%
03:00 +23°C° 0.2 mm 2 mps 593 mmHg 34%
04:00 +21°C° 0.2 mm 3 mps 593 mmHg 37%
05:00 +20°C° 0.2 mm 3 mps 593 mmHg 40%
06:00 +20°C° 0 mm 3 mps 593 mmHg 41%
07:00 +20°C° 0 mm 3 mps 593 mmHg 42%
08:00 +20°C° 0 mm 3 mps 593 mmHg 43%
09:00 +22°C° 0 mm 3 mps 594 mmHg 40%
10:00 +24°C° 0 mm 3 mps 594 mmHg 37%
11:00 +26°C° 0 mm 3 mps 595 mmHg 34%
12:00 +27°C° 0 mm 4 mps 595 mmHg 31%
13:00 +28°C° 0 mm 4 mps 595 mmHg 28%
14:00 +30°C° 0 mm 4 mps 596 mmHg 25%
15:00 +29°C° 0 mm 5 mps 596 mmHg 26%
16:00 +29°C° 0 mm 6 mps 595 mmHg 27%
17:00 +29°C° 0 mm 6 mps 595 mmHg 28%
18:00 +27°C° 0.1 mm 5 mps 595 mmHg 35%
19:00 +25°C° 0.1 mm 5 mps 595 mmHg 43%
20:00 +22°C° 0.1 mm 4 mps 594 mmHg 51%
21:00 +22°C° 0.1 mm 3 mps 594 mmHg 53%
22:00 +21°C° 0.1 mm 2 mps 595 mmHg 55%
23:00 +22°C° 0.1 mm 1 mps 595 mmHg 57%

13 July, Monday

Time Temperature Precipitation Wind Pressure Humidity
00:00 +21°C° 0.2 mm 1 mps 595 mmHg 59%
01:00 +21°C° 0.2 mm 1 mps 594 mmHg 60%
02:00 +21°C° 0.2 mm 1 mps 594 mmHg 61%
03:00 +20°C° 0 mm 1 mps 594 mmHg 63%
04:00 +20°C° 0 mm 1 mps 594 mmHg 64%
05:00 +18°C° 0 mm 0 mps 594 mmHg 65%
06:00 +20°C° 0.1 mm 1 mps 594 mmHg 61%
07:00 +21°C° 0.1 mm 1 mps 595 mmHg 57%
08:00 +22°C° 0.1 mm 1 mps 596 mmHg 53%
09:00 +24°C° 0 mm 1 mps 596 mmHg 47%
10:00 +25°C° 0 mm 2 mps 597 mmHg 40%
11:00 +27°C° 0 mm 2 mps 598 mmHg 34%
12:00 +29°C° 0 mm 3 mps 598 mmHg 29%
13:00 +30°C° 0 mm 4 mps 598 mmHg 24%
14:00 +33°C° 0 mm 6 mps 599 mmHg 19%
15:00 +30°C° 0.1 mm 5 mps 598 mmHg 25%
16:00 +29°C° 0.1 mm 5 mps 597 mmHg 31%
17:00 +27°C° 0.1 mm 5 mps 597 mmHg 38%
18:00 +26°C° 0.9 mm 4 mps 597 mmHg 43%
19:00 +24°C° 0.9 mm 3 mps 597 mmHg 49%
20:00 +23°C° 0.9 mm 2 mps 597 mmHg 55%
21:00 +23°C° 1.1 mm 2 mps 597 mmHg 58%
22:00 +22°C° 1.1 mm 1 mps 597 mmHg 60%
23:00 +22°C° 1.1 mm 1 mps 598 mmHg 62%

14 July, Tuesday

Time Temperature Precipitation Wind Pressure Humidity
00:00 +21°C° 0.1 mm 1 mps 598 mmHg 64%
01:00 +21°C° 0.1 mm 1 mps 597 mmHg 65%
02:00 +21°C° 0.1 mm 1 mps 597 mmHg 66%
03:00 +19°C° 0.1 mm 0 mps 597 mmHg 67%
04:00 +18°C° 0.1 mm 0 mps 597 mmHg 68%
05:00 +18°C° 0.1 mm 0 mps 597 mmHg 69%
06:00 +19°C° 0 mm 0 mps 598 mmHg 65%
07:00 +20°C° 0 mm 0 mps 598 mmHg 60%
08:00 +20°C° 0 mm 0 mps 599 mmHg 56%
09:00 +22°C° 0 mm 0 mps 599 mmHg 51%
10:00 +23°C° 0 mm 0 mps 599 mmHg 45%
11:00 +27°C° 0 mm 1 mps 600 mmHg 39%
12:00 +28°C° 0 mm 1 mps 600 mmHg 34%
13:00 +30°C° 0 mm 1 mps 600 mmHg 28%
14:00 +31°C° 0 mm 2 mps 600 mmHg 23%
15:00 +31°C° 0 mm 3 mps 600 mmHg 23%
16:00 +30°C° 0 mm 4 mps 600 mmHg 23%
17:00 +30°C° 0 mm 6 mps 600 mmHg 24%
18:00 +28°C° 0 mm 5 mps 599 mmHg 31%
19:00 +27°C° 0 mm 4 mps 599 mmHg 38%
20:00 +25°C° 0 mm 3 mps 599 mmHg 45%
21:00 +25°C° 0 mm 3 mps 599 mmHg 45%
22:00 +25°C° 0 mm 2 mps 599 mmHg 45%
23:00 +25°C° 0 mm 1 mps 599 mmHg 44%
Show more